Liberia, Costa Rica

6:56 PM CST on December 10, 2016 (GMT -0600)
Daniel Oduber Quiros International

Weather History for MRLB - April, 2013

Change the Weather History Date:

Monday, April 22, 2013

  Actual Average Record
Temperature  
Mean Temperature 84 °F -  
Max Temperature 96 °F 91 °F 101 °F (2016)
Min Temperature 72 °F 76 °F 68 °F (2011)
Cooling Degree Days 19    
Growing Degree Days 34 (Base 50)    
Moisture  
Dew Point 68 °F    
Average Humidity 56    
Maximum Humidity 83    
Minimum Humidity 27    
Precipitation  
Precipitation 0.00 in - - ()
Sea Level Pressure  
Sea Level Pressure 29.86 in    
Wind  
Wind Speed 7 mph ()    
Max Wind Speed 15 mph    
Max Gust Speed -    
Visibility 8.0 miles    
Events      
Averages and records for this station are not official NWS values.
T = Trace of Precipitation, MM = Missing Value Source: Averaged Metar Reports

Daily Weather History Graph

Daily Weather History Graph

Search for Another Location

Airport or City:

Trip Planner

Search our weather history database for the weather conditions in past years. The results will help you decide how hot, cold, wet, or windy it might be!

Date:

Astronomy

Apr. 22, 2013 Rise Set
Actual Time 5:27 AM CST 5:53 PM CST
Civil Twilight 5:06 AM CST 6:15 PM CST
Nautical Twilight 4:41 AM CST 6:40 PM CST
Astronomical Twilight 4:15 AM CST 7:05 PM CST
Moon 3:11 PM CST (4/22) 2:46 AM CST (4/22)
Length of Visible Light 13h 08m
Length of Day
12h 25m
Waxing Gibbous, 88% of the Moon is Illuminated
Apr 22
Waxing Gibbous
Apr 25
Full
May 2
Last Quarter
May 9
New
May 17
First Quarter

Hourly Weather History & Observations

Time (CST) Temp. Heat Index Dew Point Humidity Pressure Visibility Wind Dir Wind Speed Gust Speed Precip Events Conditions
6:00 AM 72 °F - 68 °F 83% 29.90 in 12 mi SSE 5.8 mph - -   Clear
6:00 AM 73.4 °F - 68.0 °F 83% 29.89 in - SSE 5.8 mph - N/A   Clear
7:00 AM 77.0 °F - 68.0 °F 74% 29.91 in - NNE 3.5 mph - N/A   Clear
7:19 AM - - - N/A% - - North - - N/A   Unknown
7:20 AM 77.0 °F - 68.0 °F 74% 29.91 in - NNE 3.5 mph - N/A   Clear
8:00 AM 84.2 °F 88.4 °F 69.8 °F 62% 29.93 in - SW 4.6 mph - N/A   Clear
8:25 AM 87.8 °F 90.4 °F 66.2 °F 49% 29.92 in - East 15.0 mph - N/A   Clear
9:00 AM 89.6 °F 91.1 °F 64.4 °F 43% 29.92 in - East 13.8 mph - N/A   Clear
9:14 AM 89.6 °F 91.1 °F 64.4 °F 43% 29.92 in - East 13.8 mph - N/A   Clear
10:00 AM 91.4 °F 93.2 °F 64.4 °F 41% 29.91 in 6.2 mi East 12.7 mph - N/A   Scattered Clouds
11:00 AM 93.2 °F 94.9 °F 64.4 °F 38% 29.89 in 6.2 mi ENE 11.5 mph - N/A   Scattered Clouds
12:00 PM 93 °F - 63 °F 27% 29.87 in 12 mi East 8.1 mph - -   Partly Cloudy
12:00 PM 93.2 °F 94.1 °F 62.6 °F 36% 29.87 in 6.2 mi East 8.1 mph - N/A   Scattered Clouds
1:00 PM 93.2 °F 94.1 °F 62.6 °F 36% 29.83 in 6.2 mi East 10.4 mph - N/A   Scattered Clouds
2:00 PM 89.6 °F 93.4 °F 68.0 °F 49% 29.80 in 6.2 mi West 15.0 mph - N/A   Mostly Cloudy
3:00 PM 87 °F - 69 °F 47% 29.81 in 12 mi West 12.7 mph - -   Mostly Cloudy
3:00 PM 87.8 °F 92.6 °F 69.8 °F 55% 29.79 in 6.2 mi West 12.7 mph - N/A   Mostly Cloudy
4:00 PM 89.6 °F 94.7 °F 69.8 °F 52% 29.79 in 6.2 mi West 9.2 mph - N/A   Scattered Clouds
5:00 PM 87.8 °F 93.8 °F 71.6 °F 58% 29.79 in 6.2 mi West 10.4 mph - N/A   Scattered Clouds
6:00 PM 84 °F - 72 °F 61% 29.83 in 12 mi NW 8.1 mph - -   Overcast
6:00 PM 84.2 °F 90.9 °F 73.4 °F 70% 29.82 in 6.2 mi NW 8.1 mph - N/A   Scattered Clouds
7:00 PM 82.4 °F 87.2 °F 71.6 °F 70% 29.85 in - East 4.6 mph - N/A   Clear
8:00 PM 80.6 °F 84.6 °F 71.6 °F 74% 29.87 in - South 4.6 mph - N/A   Clear